Home   Weather   Kassala   Past weeks

Flag for Sudan Past Weather in Kassala, Sudan — Yesterday and Last 2 Weeks

Now
111 °F

Sunny.


Feels Like: 104 °F
Forecast: 82 / 107 °F
Wind: 14 mph from North

Location: Khartoum Airport

Current Time: Apr 23, 2017 at 3:15:45 pm

Latest Report: Apr 23, 2017 at 2:30 pm


Visibility: 10 mi

Pressure: 29.74 "Hg (28.16 "Hg at 506m altitude)

Humidity: 7%

Dew Point: 34 °F

Location of KassalaLocation

Past Weather in Kassala — Graph

°F

Kassala Temperature Yesterday

Maximum temperature yesterday: 111 °F (at 3:00 pm)
Minimum temperature yesterday: 86 °F (at 7:00 am)
Average temperature yesterday: 100 °F

High & Low Weather Summary for the Past Weeks

 TemperatureHumidityPressure
High111 °F (Apr 22, 3:00 pm)19% (Apr 21, 11:00 am)29.92 "Hg (Apr 21, 11:00 am)
Low81 °F (Apr 20, 7:00 am)5% (Apr 19, 5:30 pm)29.65 "Hg (Apr 21, 3:30 pm)
Average96 °F11%29.75 "Hg
* Reported Apr 19 9:30 am — Apr 23 2:30 pm, Kassala, Weather by CustomWeather, © 2017

Note: Actual official high and low records may vary slightly from our data, if they occured in-between our weather recording intervals... More about our weather records

Advertising

Kassala Weather History for the Previous 24 Hours

Scroll right to see more
 ConditionsComfort  
Time TempWeatherWind HumidityBarometerVisibility
2:30 pm
Sun, Apr 23
111 °FSunny.14 mph7%29.74 "Hg10 mi
2:00 pm109 °FSunny.16 mph7%29.74 "Hg10 mi
1:30 pm108 °FSunny.16 mph9%29.77 "Hg10 mi
1:00 pm106 °FSunny.14 mph9%29.77 "Hg10 mi
12:30 pm104 °FSunny.12 mph8%29.80 "Hg10 mi
12:00 pm102 °FSunny.15 mph9%29.80 "Hg10 mi
11:30 am104 °FSunny.15 mph8%29.83 "Hg10 mi
11:00 am100 °FSunny.15 mph8%29.83 "Hg10 mi
10:00 am97 °FSunny.12 mph8%29.80 "Hg10 mi
9:30 am91 °FSunny.14 mph10%29.80 "Hg10 mi
9:00 am91 °FSunny.12 mph10%29.80 "Hg10 mi
8:30 am91 °FSunny.15 mph10%29.77 "Hg10 mi
8:00 am91 °FSunny.15 mph10%29.77 "Hg10 mi
7:30 am90 °FSunny.14 mph8%29.77 "Hg10 mi
7:00 am90 °FSunny.16 mph8%29.77 "Hg10 mi
6:30 am90 °FSunny.17 mph10%29.74 "Hg10 mi
6:00 am90 °FClear.16 mph10%29.74 "Hg10 mi
5:00 am91 °FClear.21 mph10%29.71 "Hg10 mi
4:30 am93 °FClear.21 mph10%29.71 "Hg10 mi
4:00 am93 °FClear.21 mph11%29.71 "Hg10 mi
3:30 am93 °FClear.20 mph11%29.68 "Hg10 mi
3:00 am97 °FClear.17 mph12%29.71 "Hg10 mi
2:30 am97 °FClear.16 mph11%29.71 "Hg10 mi
2:00 am97 °FClear.16 mph12%29.71 "Hg10 mi
1:30 am97 °FClear.12 mph12%29.71 "Hg10 mi
1:00 am99 °FClear.13 mph10%29.71 "Hg10 mi
12:30 am97 °FClear.10 mph12%29.71 "Hg10 mi
12:00 am97 °FClear.12 mph12%29.71 "Hg10 mi
11:30 pm
Sat, Apr 22
97 °FClear.10 mph12%29.71 "Hg10 mi
11:00 pm100 °FClear.10 mph11%29.71 "Hg10 mi
10:30 pm102 °FClear.10 mph9%29.71 "Hg10 mi
9:30 pm102 °FClear.9 mph12%29.68 "Hg10 mi
9:00 pm102 °FClear.6 mph12%29.68 "Hg10 mi
8:30 pm104 °FClear.6 mph11%29.68 "Hg10 mi
8:00 pm104 °FClear.8 mph11%29.68 "Hg10 mi
7:30 pm109 °FClear.8 mph8%29.65 "Hg10 mi
7:00 pm108 °FExtremely hot.6 mph9%29.65 "Hg5 mi
6:30 pm109 °FSunny.7 mph9%29.65 "Hg10 mi
6:00 pm109 °FSunny.9 mph9%29.65 "Hg10 mi
5:30 pm109 °FPartly sunny.7 mph9%29.65 "HgN/A
5:00 pm111 °FPartly sunny.7 mph11%29.65 "HgN/A
4:30 pm111 °FPartly sunny.6 mph11%29.65 "HgN/A
4:00 pm111 °FPartly sunny.10 mph11%29.65 "HgN/A
3:00 pm111 °FSunny.5 mph11%29.68 "Hg10 mi
Weather by CustomWeather, © 2017

See weather overviewHow to use our weather pages